Stations météo

réclame
Mon MeteoGroup
Schleswig, Allemagne (10035): Température de l'air & dewpoint: 13.06.2019 17:00:00 - 19.06.2019 17:00:00 (CEST)Schleswig, Allemagne (10035): Température de l'air 5cm & Température de l'air -5cm: 13.06.2019 17:00:00 - 19.06.2019 17:00:00 (CEST)Schleswig, Allemagne (10035): Température de l'air -20cm & Température de l'air -100cm: 13.06.2019 17:00:00 - 19.06.2019 17:00:00 (CEST)Schleswig, Allemagne (10035): Vitesse du vent & gusts: 13.06.2019 17:00:00 - 19.06.2019 17:00:00 (CEST)Schleswig, Allemagne (10035): Direction du vent: 13.06.2019 17:00:00 - 19.06.2019 17:00:00 (CEST)Schleswig, Allemagne (10035): reduced air pressure: 13.06.2019 17:00:00 - 19.06.2019 17:00:00 (CEST)Schleswig, Allemagne (10035): visibility: 13.06.2019 17:00:00 - 19.06.2019 17:00:00 (CEST)Schleswig, Allemagne (10035): Ensoleillement: 13.06.2019 17:00:00 - 19.06.2019 17:00:00 (CEST)Schleswig, Allemagne (10035): Quantités de précipitations: 13.06.2019 17:00:00 - 19.06.2019 17:00:00 (CEST)
Date & Time tt [°C] td [°C] tt 5cm [°C] tt -5cm [°C] tt -20cm [°C] tt -100cm [°C] ff [km/h] ff [knt] fx [km/h] fx [knt] dd ppp [hPa] vv [km] sd [min] rr [mm]
19.06.2019 17:00:00 24,9 20,1 29,9 28,7 22,5 15,3 9 5 28 15 N 1006,1 25 47 0,8
19.06.2019 16:00:00 23,9 20,7 22,3 26,3 22,2 15,3 11 6 27 14 SSW 1006,2 15 8 0,5
19.06.2019 15:00:00 26,8 18,6 29,0 29,9 21,5 15,3 16 8 26 14 E 1006,7 30 55 0,0
19.06.2019 14:00:00 25,8 17,7 30,1 29,0 20,8 15,3 14 7 24 13 E 1007,5 35 60 0,0
19.06.2019 13:00:00 24,1 15,6 28,7 27,4 20,2 15,3 14 8 33 18 E 1007,9 30 60 0,0
19.06.2019 12:00:00 22,8 15,5 26,0 26,0 19,6 15,3 19 11 34 19 E 1008,2 35 60 0,0
19.06.2019 11:00:00 21,4 16,7 23,7 24,6 19,1 15,2 19 10 34 19 E 1008,8 35 60 0,0
19.06.2019 10:00:00 21,0 17,3 22,2 22,5 18,8 15,2 14 8 24 13 E 1009,0 35 37 0,0
19.06.2019 09:00:00 17,4 16,1 17,5 18,0 18,9 15,2 12 7 18 10 NNE 1009,0 20 0 1,8
19.06.2019 08:00:00 16,9 16,3 16,8 17,8 19,0 15,2 15 8 28 15 W 1010,4 10 0 0,1
19.06.2019 07:00:00 16,5 16,0 16,3 17,2 19,2 15,2 9 5 16 8 ENE 1010,4 6 0 1,9
19.06.2019 06:00:00 16,3 15,2 15,8 17,0 19,4 15,2 6 3 10 5 ENE 1010,7 10 0 0,0
19.06.2019 05:00:00 15,3 14,8 14,0 16,4 19,8 15,2 7 4 11 6 NE 1010,8 13 0 0,0
19.06.2019 04:00:00 15,4 15,0 14,5 16,8 20,1 15,1 6 3 9 5 NE 1011,4 11 0 0,0
19.06.2019 03:00:00 15,3 14,9 13,9 17,2 20,5 15,1 7 4 10 5 NNE 1011,9 8 0 0,0
19.06.2019 02:00:00 16,0 15,6 14,8 17,9 20,9 15,1 4 2 8 4 NNE 1012,3 7 0 0,0
19.06.2019 01:00:00 17,0 16,6 15,4 18,6 21,3 15,1 5 3 12 6 ENE 1012,8 8 0 0,0
19.06.2019 00:00:00 17,8 17,4 17,0 19,5 21,6 15,1 8 4 11 6 NNW 1013,1 3,9 0 0,0
18.06.2019 23:00:00 18,7 17,7 17,4 20,6 22,0 15,1 4 2 11 6 NNE 1013,4 17 0 0,0
18.06.2019 22:00:00 19,9 18,1 18,5 21,9 22,3 15,1 3 2 9 5 NE 1013,1 22 0 0,0
18.06.2019 21:00:00 21,0 17,8 20,3 23,0 22,5 15,1 3 1 17 9 E 1013,2 34 9 0,0
18.06.2019 20:00:00 21,4 16,6 22,0 25,0 22,5 15,1 10 5 18 10 E 1013,3 39 38 0,0
18.06.2019 19:00:00 21,7 17,7 21,8 25,1 22,5 15,1 5 3 32 17 E 1013,1 37 2 0,5
18.06.2019 18:00:00 25,4 15,7 26,4 28,0 22,2 15,0 6 3 17 9 E 1013,4 39 21 0,0
18.06.2019 17:00:00 25,5 19,2 25,8 27,6 22,0 15,0 8 4 38 20 W 1013,3 35 8 2,5
18.06.2019 16:00:00 27,1 14,2 28,2 28,7 21,5 15,0 13 7 25 14 WSW 1013,6 40 51 0,0
18.06.2019 15:00:00 27,6 13,6 30,2 28,7 20,9 15,0 14 8 26 14 SW 1014,2 40 53 0,0
18.06.2019 14:00:00 27,1 14,0 29,5 27,3 20,4 15,0 10 5 26 14 S 1014,7 40 35 0,0
18.06.2019 13:00:00 26,3 14,0 29,0 28,2 19,6 15,0 12 6 25 13 SSE 1014,9 40 59 0,0
18.06.2019 12:00:00 25,2 14,2 27,6 26,5 18,9 15,0 14 7 27 15 SW 1015,5 40 47 0,0
18.06.2019 11:00:00 24,7 15,2 26,1 25,7 18,3 15,0 11 6 22 12 S 1015,8 40 58 0,0
18.06.2019 10:00:00 22,6 14,8 24,1 23,0 18,0 15,0 13 7 22 12 S 1016,1 40 60 0,0
18.06.2019 09:00:00 20,4 14,9 21,1 19,9 17,8 14,9 10 5 18 10 SSE 1016,4 35 43 0,0
18.06.2019 08:00:00 18,8 14,5 19,1 17,8 17,8 14,9 11 6 22 12 S 1016,7 35 24 0,0
18.06.2019 07:00:00 18,1 14,2 17,6 16,9 17,9 14,9 8 5 19 11 SSE 1016,9 35 44 0,0
18.06.2019 06:00:00 17,4 14,1 16,0 15,6 18,2 14,9 8 4 16 9 SSE 1017,2 35 15 0,0
18.06.2019 05:00:00 17,5 14,0 15,9 15,4 18,4 14,9 8 5 25 14 SSE 1017,5 40 0 0,0
18.06.2019 04:00:00 17,9 13,7 16,4 15,5 18,7 14,9 10 5 27 15 SSE 1017,7 54 0 0,0
18.06.2019 03:00:00 17,7 13,2 16,0 15,7 19,1 14,9 9 5 19 10 SSE 1018,1 65 0 0,0
18.06.2019 02:00:00 17,4 12,6 15,5 16,0 19,4 14,9 9 5 16 9 ESE 1018,4 58 0 0,0
18.06.2019 01:00:00 17,2 12,9 14,9 16,6 19,8 14,9 7 4 18 10 ESE 1018,7 56 0 0,0
18.06.2019 00:00:00 17,2 14,7 15,1 17,3 20,2 14,9 6 4 13 7 E 1018,8 50 0 0,0
17.06.2019 23:00:00 17,1 14,8 15,1 17,9 20,6 14,9 7 4 11 6 E 1018,9 42 0 0,0
17.06.2019 22:00:00 18,2 13,9 16,6 18,9 21,0 14,9 8 4 16 9 E 1019,1 60 33 0,0
17.06.2019 21:00:00 19,8 13,9 18,7 19,9 21,4 14,9 10 6 24 13 E 1019,3 62 60 0,0
17.06.2019 20:00:00 20,9 13,6 20,2 21,7 21,6 14,9 14 7 24 13 E 1019,6 59 48 0,0
17.06.2019 19:00:00 21,8 14,3 22,8 24,4 21,6 14,9 13 7 25 13 E 1019,8 44 27 0,0
17.06.2019 18:00:00 22,6 12,9 23,8 25,6 21,4 14,8 8 5 16 9 E 1020,0 51 30 0,0
17.06.2019 17:00:00 23,7 13,1 28,9 26,7 21,0 14,8 6 4 16 8 SW 1020,4 30 35 0,0
17.06.2019 16:00:00 23,0 12,0 24,8 27,8 20,4 14,8 8 4 21 12 SW 1020,9 30 43 0,0
17.06.2019 15:00:00 22,6 12,5 24,7 28,2 19,7 14,8 9 5 27 14 SW 1021,0 30 55 0,0
17.06.2019 14:00:00 23,1 13,0 27,7 27,1 19,0 14,8 13 7 27 15 WSW 1021,4 30 50 0,0
17.06.2019 13:00:00 23,5 14,5 27,6 26,4 18,3 14,8 14 8 29 16 W 1021,5 30 49 0,0
17.06.2019 12:00:00 22,2 12,4 25,0 25,0 17,7 14,8 15 8 30 16 WSW 1021,7 30 56 0,0
17.06.2019 11:00:00 21,1 13,2 22,9 23,4 17,1 14,8 16 9 37 20 WSW 1021,7 30 58 0,0
17.06.2019 10:00:00 19,8 13,1 21,7 21,3 16,6 14,8 18 10 31 17 WSW 1021,8 30 59 0,0
17.06.2019 09:00:00 18,6 13,7 19,5 18,9 16,4 14,8 12 7 23 13 SW 1021,7 25 59 0,0
17.06.2019 08:00:00 16,5 13,4 16,7 15,4 16,5 14,8 13 7 22 12 SSW 1021,4 15 60 0,0
17.06.2019 07:00:00 14,5 12,1 13,3 14,2 16,7 14,8 11 6 19 10 S 1021,3 18 60 0,0
17.06.2019 06:00:00 12,8 11,4 11,5 13,0 17,0 14,8 10 5 14 7 S 1021,4 12 44 0,0
17.06.2019 05:00:00 12,2 11,5 10,9 13,1 17,4 14,8 8 5 11 6 S 1021,3 12 0 0,0
17.06.2019 04:00:00 12,1 11,6 10,2 13,4 17,8 14,8 7 4 9 5 S 1021,2 11 0 0,0
17.06.2019 03:00:00 12,1 11,1 9,9 14,0 18,2 14,8 6 3 8 4 SSW 1021,2 24 0 0,0
17.06.2019 02:00:00 12,7 11,7 10,6 14,8 18,5 14,8 7 4 10 6 WSW 1021,4 22 0 0,0
17.06.2019 01:00:00 13,9 12,3 12,0 15,9 18,9 14,8 5 3 8 5 SSW 1021,3 28 0 0,0
17.06.2019 00:00:00 15,3 12,7 14,4 17,1 19,1 14,8 6 3 7 4 SW 1021,3 31 0 0,0
16.06.2019 23:00:00 15,9 12,4 14,8 17,8 19,4 14,8 6 3 10 5 W 1020,7 40 0 0,0
16.06.2019 22:00:00 16,3 13,6 15,2 18,7 19,7 14,8 7 4 11 6 WSW 1020,6 31 0 0,0
16.06.2019 21:00:00 17,6 14,2 17,2 19,7 19,9 14,8 4 2 6 3 WSW 1020,3 35 2 0,0
16.06.2019 20:00:00 17,6 14,1 16,8 20,4 20,0 14,8 2 1 14 7 NNW 1020,3 40 0 0,0
16.06.2019 19:00:00 17,7 13,7 17,3 21,2 20,2 14,8 3 2 18 10 SSW 1020,3 39 1 0,4
16.06.2019 18:00:00 18,8 10,8 19,0 22,0 20,1 14,8 18 10 32 17 WNW 1020,0 58 2 0,0
16.06.2019 17:00:00 21,7 10,9 23,7 24,8 19,8 14,8 6 3 19 10 SW 1019,4 45 4 0,0
16.06.2019 16:00:00 21,2 10,1 23,5 25,9 19,2 14,8 11 6 29 16 SSW 1019,6 45 51 0,0
16.06.2019 15:00:00 21,4 11,3 24,7 25,6 18,7 14,8 12 7 24 13 SSW 1019,6 45 46 0,0
16.06.2019 14:00:00 21,4 12,7 24,1 25,2 18,2 14,8 12 6 24 13 W 1019,6 45 31 0,0
16.06.2019 13:00:00 20,1 11,3 22,6 24,2 17,6 14,8 12 7 24 13 WSW 1019,4 40 34 0,0
16.06.2019 12:00:00 19,8 11,2 22,7 24,3 16,9 14,7 13 7 28 15 WSW 1019,3 40 53 0,0
16.06.2019 11:00:00 20,2 12,5 23,4 22,5 16,3 14,7 15 8 28 15 W 1018,7 40 54 0,0
16.06.2019 10:00:00 18,7 12,8 20,5 20,5 15,9 14,7 13 7 26 14 WSW 1018,2 40 40 0,0
16.06.2019 09:00:00 17,1 13,5 18,2 18,0 15,7 14,7 13 7 22 12 WSW 1018,2 35 57 0,0
16.06.2019 08:00:00 15,0 12,7 14,2 14,5 15,8 14,7 10 6 18 10 WSW 1017,8 30 60 0,0
16.06.2019 07:00:00 13,1 11,8 12,1 13,3 16,0 14,7 9 5 14 8 WSW 1017,6 25 54 0,0
16.06.2019 06:00:00 11,9 11,5 10,7 12,7 16,2 14,7 7 4 14 8 WSW 1017,1 10 44 0,0
16.06.2019 05:00:00 11,9 11,7 10,5 12,8 16,5 14,7 10 5 22 12 WSW 1016,5 7 0 0,0
16.06.2019 04:00:00 12,5 12,0 11,4 13,3 16,8 14,7 11 6 19 11 WSW 1016,4 13 0 0,0
16.06.2019 03:00:00 12,8 12,2 11,0 14,0 17,1 14,7 9 5 16 9 WSW 1016,4 19 0 0,0
16.06.2019 02:00:00 13,8 12,4 12,8 15,0 17,3 14,7 11 6 24 13 WSW 1016,0 29 0 0,0
16.06.2019 01:00:00 14,3 12,5 14,2 15,6 17,5 14,7 14 8 27 15 W 1015,5 42 0 0,0
16.06.2019 00:00:00 14,5 12,8 14,5 15,9 17,7 14,7 14 8 39 21 WNW 1015,2 49 0 0,0
15.06.2019 23:00:00 14,7 13,3 14,7 16,4 17,8 14,7 22 12 44 24 W 1013,7 38 0 0,0
15.06.2019 22:00:00 15,7 14,9 15,8 17,4 17,9 14,7 23 13 37 20 W 1012,4 10 0 0,0
15.06.2019 21:00:00 16,9 15,4 16,9 18,3 17,9 14,7 18 10 33 18 W 1011,9 40 0 0,0
15.06.2019 20:00:00 17,9 15,8 17,8 19,1 17,7 14,7 14 7 33 18 WSW 1011,9 49 14 0,0
15.06.2019 19:00:00 18,9 16,3 19,1 20,6 17,5 14,7 13 7 26 14 WSW 1011,4 49 19 0,0
15.06.2019 18:00:00 17,6 16,7 18,2 18,9 17,4 14,7 5 3 14 8 SSW 1010,5 13 0 0,0
15.06.2019 17:00:00 16,6 15,7 17,6 18,4 17,4 14,7 5 3 11 6 E 1010,4 12 0 0,0
15.06.2019 16:00:00 15,7 15,4 15,7 17,1 17,4 14,6 8 5 29 15 E 1010,2 8 0 3,7
15.06.2019 15:00:00 16,2 14,4 16,0 18,0 17,3 14,6 18 10 36 20 E 1009,4 15 0 0,8
15.06.2019 14:00:00 17,1 14,4 16,2 17,3 17,3 14,6 16 8 28 15 ESE 1010,0 18 0 1,0
15.06.2019 13:00:00 18,2 13,7 16,0 17,2 17,3 14,6 17 9 35 19 ESE 1009,8 20 0 0,2
15.06.2019 12:00:00 18,7 15,0 17,3 17,7 17,3 14,6 16 9 27 14 E 1008,6 30 0 0,0
15.06.2019 11:00:00 16,9 16,3 16,8 17,0 17,3 14,6 8 4 21 11 N 1009,6 12 0 0,0
15.06.2019 10:00:00 16,6 16,1 16,2 16,9 17,4 14,6 13 7 21 11 NE 1009,8 12 0 0,1
15.06.2019 09:00:00 16,5 15,9 16,3 16,9 17,4 14,6 12 6 22 12 NE 1010,8 15 0 0,7
15.06.2019 08:00:00 16,5 15,9 16,2 16,6 17,5 14,6 7 4 16 9 ENE 1011,8 5 0 2,0
15.06.2019 07:00:00 16,5 15,2 16,2 16,5 17,6 14,6 10 5 19 10 ENE 1012,0 20 0 0,0
15.06.2019 06:00:00 16,2 14,9 15,9 16,2 17,7 14,5 9 5 16 8 ENE 1012,5 20 0 0,0
15.06.2019 05:00:00 16,2 15,0 15,8 16,1 17,9 14,5 10 5 17 9 NE 1012,5 22 0 0,0
15.06.2019 04:00:00 15,9 15,1 15,3 16,0 18,2 14,5 12 6 18 10 NE 1013,1 15 0 0,0
15.06.2019 03:00:00 15,9 15,2 15,2 16,1 18,4 14,5 10 5 18 10 NNE 1013,9 13 0 0,0
15.06.2019 02:00:00 15,8 15,1 14,8 16,3 18,7 14,5 8 5 16 9 NE 1014,9 15 0 0,0
15.06.2019 01:00:00 15,9 14,6 14,8 16,7 19,0 14,5 8 5 15 8 NE 1015,1 32 0 0,0
15.06.2019 00:00:00 16,4 14,4 15,5 17,2 19,4 14,5 8 4 16 9 ENE 1015,8 40 0 0,0
14.06.2019 23:00:00 16,6 14,7 15,4 17,7 19,7 14,5 10 5 14 8 NNE 1015,9 37 0 0,0
14.06.2019 22:00:00 17,8 14,8 16,2 18,9 20,0 14,5 5 3 13 7 N 1015,8 53 38 0,0
14.06.2019 21:00:00 19,4 15,4 17,5 20,2 20,2 14,5 4 2 11 6 N 1015,7 59 60 0,0
14.06.2019 20:00:00 20,5 15,0 19,6 22,0 20,2 14,5 5 3 12 6 N 1015,8 65 50 0,0
14.06.2019 19:00:00 20,4 14,9 23,0 24,1 20,0 14,5 9 5 27 15 NE 1015,8 68 41 0,0
14.06.2019 18:00:00 19,9 14,4 23,1 24,3 19,7 14,5 19 11 34 18 N 1015,6 45 58 0,0
14.06.2019 17:00:00 21,1 13,9 24,7 23,5 19,5 14,5 25 13 50 27 WNW 1015,1 40 20 0,0
14.06.2019 16:00:00 24,9 12,4 27,0 24,5 19,2 14,5 13 7 29 16 SE 1014,8 40 42 0,0
14.06.2019 15:00:00 24,6 12,3 27,5 24,0 18,9 14,5 14 8 25 13 ESE 1015,5 40 14 0,0
14.06.2019 14:00:00 23,5 11,3 24,4 23,7 18,4 14,5 13 7 29 16 ESE 1015,8 40 20 0,0
14.06.2019 13:00:00 24,0 10,5 26,8 24,9 17,8 14,5 14 7 33 18 ESE 1016,0 40 56 0,0
14.06.2019 12:00:00 21,8 11,1 24,6 23,8 17,2 14,5 13 7 21 12 ESE 1016,5 40 44 0,0
14.06.2019 11:00:00 20,6 11,3 22,6 23,1 16,6 14,5 10 5 21 11 SE 1016,8 40 57 0,0
14.06.2019 10:00:00 19,3 12,1 21,3 20,6 16,2 14,4 11 6 23 13 S 1017,1 40 54 0,0
14.06.2019 09:00:00 18,1 11,7 18,9 18,3 16,0 14,4 8 4 17 9 SSE 1016,7 40 54 0,0
14.06.2019 08:00:00 16,0 12,0 15,3 15,3 16,0 14,4 5 3 11 6 SE 1016,2 40 9 0,0
14.06.2019 07:00:00 15,4 11,3 14,1 14,5 16,2 14,4 4 2 10 5 S 1015,9 40 50 0,0
14.06.2019 06:00:00 13,3 11,2 10,9 12,9 16,5 14,4 6 3 9 5 SSE 1015,8 30 38 0,0
14.06.2019 05:00:00 12,6 11,0 10,2 13,4 16,7 14,4 6 3 10 5 S 1015,5 38 0 0,0
14.06.2019 04:00:00 13,7 11,0 11,8 14,1 17,0 14,4 6 4 16 9 S 1015,5 55 0 0,0
14.06.2019 03:00:00 13,9 11,1 12,5 14,5 17,2 14,4 6 4 10 5 S 1015,3 60 0 0,0
14.06.2019 02:00:00 14,3 11,1 12,6 14,5 17,5 14,4 5 3 11 6 SSE 1014,6 57 0 0,0
14.06.2019 01:00:00 13,6 11,7 11,3 14,7 17,9 14,4 5 3 10 6 SSE 1014,5 56 0 0,0
14.06.2019 00:00:00 14,9 12,1 13,2 15,9 18,1 14,4 4 2 31 17 ESE 1014,2 56 0 0,5
13.06.2019 23:00:00 16,6 12,0 15,1 16,4 18,4 14,4 7 4 12 6 E 1013,6 61 0 0,0
13.06.2019 22:00:00 16,3 11,5 13,0 16,9 18,7 14,4 5 3 6 4 SE 1013,3 60 0 0,0
13.06.2019 21:00:00 18,9 9,2 15,5 18,0 19,0 14,4 5 3 15 8 SW 1013,0 75 38 0,0
13.06.2019 20:00:00 20,4 8,5 18,7 19,5 19,0 14,4 8 5 22 12 SW 1012,4 68 60 0,0
13.06.2019 19:00:00 21,2 8,2 22,3 21,4 18,9 14,4 13 7 26 14 SW 1012,4 71 40 0,0
13.06.2019 18:00:00 21,4 9,5 23,7 21,5 18,9 14,4 10 5 20 11 SSW 1012,4 58 23 0,0
13.06.2019 17:00:00 20,2 9,8 20,0 21,1 18,8 14,4 9 5 26 14 SW 1012,5 30 6 0,0

tt = Température de l'air
td = dewpoint
tt 5cm = Température de l'air 5cm
tt -5cm = Température de l'air -5cm
tt -20cm = Température de l'air -20cm
tt -100cm = Température de l'air -100cm
ff = Vitesse du vent
fx = gusts
dd = Direction du vent
ppp = reduced air pressure
vv = visibility
sd = Ensoleillement
rr = Quantités de précipitations

stations d'obs. à proximité